User: anonymous   Login
Location: Nairn
(57.5833°N, 3.8667°W)
Time: 01:30:12
(UTC+00:00)
Language:

Vanguard 2 Rocket - Orbit

View from above orbital plane
View from above orbital plane
View from above satellite
View from above satellite

Ground track
Ground track

The orbit data is extracted from the following two-line orbital elements,

1 00012U 59001B   22277.46032835  .00000431  00000-0  24359-3 0  9993
2 00012  32.9003 294.7102 1664995 168.1229 196.4182 11.44700306376111
Epoch (UTC): 04 October 2022 11:02:52
Eccentricity: 0.1664995
inclination: 32.9003°
perigee height: 553 km
apogee height: 3323 km
right ascension of ascending node: 294.7102°
argument of perigee: 168.1229°
revolutions per day: 11.44700306
mean anomaly at epoch: 196.4182°
orbit number at epoch: 37611

The dashed part of the orbit path shows where the satellite is in the earth's shadow,  

DLR